Regional Weather Roundup
Issued by NWS Sioux Falls, SD

Home | Current Version | Previous Version | Text Only | Print | Product List | Glossary On
Versions: 1 2 3 4 5 6 7 8 9 10 11 12 13 14 15 16 17 18 19 20 21 22 23 24 25 26 27 28 29 30 31 32 33 34 35 36 37 38 39 40 41 42 43 44 45 46 47 48 49 50
000
ASUS43 KFSD 240610
RWRFSD

WEATHER ROUNDUP FOR SE SOUTH DAKOTA/SW MINNESOTA/NW IOWA
NATIONAL WEATHER SERVICE SIOUX FALLS SD
100 AM CDT WED AUG 24 2016

NOTE: "FAIR" INDICATES FEW OR NO CLOUDS BELOW 12,000 FEET WITH NO
SIGNIFICANT WEATHER AND OR OBSTRUCTIONS TO VISIBILITY.


SDZ038>040-050-052>070-240700-
SOUTHEAST SOUTH DAKOTA

CITY           SKY/WX    TMP DP  RH WIND       PRES   REMARKS
BROOKINGS      FOG       70  69  97 W8        29.83F VSB 1
CHAMBERLAIN    CLEAR     69  51  51 N7        29.94R
6HR MIN TEMP:  69; 6HR MAX TEMP:  84;

HURON          CLEAR     59  54  83 NW7       29.89R
6HR MIN TEMP:  59; 6HR MAX TEMP:  80;

MADISON        CLOUDY    68  68 100 W7        29.85F FOG
MITCHELL       CLEAR     65  59  81 NW10      29.89R
6HR MIN TEMP:  65; 6HR MAX TEMP:  81;

SIOUX FALLS    CLOUDY    74  73  97 W5        29.83R
6HR MIN TEMP:  72; 6HR MAX TEMP:  74;

WINNER         FAIR      62  45  53 CALM      29.96S
YANKTON        PTCLDY    70  61  73 NW9       29.83R
$$

MNZ071-072-080-081-089-090-097-098-240700-
SOUTHWEST MINNESOTA

CITY           SKY/WX    TMP DP  RH WIND       PRES   REMARKS
FAIRMONT         N/A    N/A N/A N/A MISG        N/A
JACKSON        CLOUDY    72  70  94 S5        29.84R FOG
LUVERNE        CLOUDY    68  64  88 W3        29.83R FOG
MARSHALL       CLOUDY    67  66  97 CALM      29.82S
6HR MIN TEMP:  66; 6HR MAX TEMP:  67; 6HR PCP:  0.01;

MONTEVIDEO     CLOUDY    66  66 100 CALM      29.83S
REDWOOD FALLS  CLOUDY    67  65  93 CALM      29.81F
TRACY          CLOUDY    68  67  98 CALM      29.82F
WINDOM         CLOUDY    66  64  94 CALM      29.82S FOG
WORTHINGTON    CLOUDY    71  69  93 SW8       29.83S
$$

IAZ001>003-012>014-020>022-031-032-NEZ013-014-SDZ071-240700-
NORTHWEST IOWA

CITY           SKY/WX    TMP DP  RH WIND       PRES   REMARKS
CHEROKEE       CLOUDY    69  66  89 S5        29.82F
DENISON        CLOUDY    70  68  94 SW3       29.80F
ESTHERVILLE    CLOUDY    71  71 100 S6        29.83R FOG
LE MARS        CLOUDY    70  64  83 SE7       29.82S
ORANGE CITY    CLOUDY    70  64  83 CALM      29.82F
SHELDON        CLOUDY    68  66  94 SE6       29.81S
SIOUX CITY     CLOUDY    71  63  75 SW6       29.83R
6HR MIN TEMP:  70; 6HR MAX TEMP:  81; 6HR PCP: TRACE;

SPENCER        CLOUDY    70  69  97 SW7       29.83R FOG
6HR MIN TEMP:  70; 6HR MAX TEMP:  73;

STORM LAKE     CLOUDY    68  66  94 SW6       29.84S
$$

ABBREVIATIONS USED IN REMARKS
   TC - TEMPERATURE IN CELSIUS
  WCI - WIND CHILL INDEX
   HX - HEAT INDEX
  VSB - VISIBILITY





USA.gov is the U.S. government's official web portal to all federal, state and local government web resources and services.